Tracking 35275 objects as of 8-Sep-2026
HD Live streaming from Space Station
objects crossing your sky now

HUSKYSAT-1


HUSKYSAT-1 is no longer on orbit
HUSKYSAT-1 is classified as:


NORAD ID: 45119
Int'l Code: 2019-071J
Launch date: November 2, 2019
Source: United States (US)
Launch site: WALLOPS ISLAND (WLPIS)
Decay date: 2023-04-12

Uplink (MHz): 145.910-145.940
Downlink (MHz): 435.840-435.810
Beacon (MHz):
Mode: SSB
Call sign:
Status: Inactive


Uplink (MHz):
Downlink (MHz): 435.800/24049.000
Beacon (MHz):
Mode: 1k2 BPSK
Call sign:
Status: Inactive


Uplink (MHz): 145.910-145.940
Downlink (MHz): 435.840-435.810
Beacon (MHz):
Mode: SSB
Call sign:
Status: Reentered


Uplink (MHz):
Downlink (MHz): 435.800*/24049.000
Beacon (MHz):
Mode: 1k2 BPSK
Call sign:
Status: Reentered

Your satellite tracking list
Your tracking list is empty




NASA's NSSDC Master Catalog

Two Line Element Set (TLE):
1 45119U 19071J   23100.59666950  .12876049  12467-4  44960-3 0  9997
2 45119  51.6129   8.2149 0006761 246.9747 113.0568 16.44056360179702
Source of the keplerian elements: AFSPC